Location: Al Mulaqqa?ah
(24.1833°N, 32.8833°E)
Time: 13:42:23
(UTC+00:00)

Cosmos 1777 Rocket - Pass Details

Date: 26 September 2021
Orbit: 759 x 775 km, 74.0° (Epoch: 23 October)

Event Time Altitude Azimuth Distance (km) Brightness Sun altitude
Rises 15:51:07 0° 180° (S) 3,229 7.2 -3.2°
Reaches altitude 10° 15:53:34 10° 174° (S) 2,302 6.4 -3.8°
Maximum altitude 15:58:33 47° 102° (ESE) 1,012 4.3 -4.9°
Drops below altitude 10° 16:03:32 10° 29° (NNE) 2,301 6.2 -6.1°
Sets 16:05:58 0° 24° (NNE) 3,227 7.0 -6.6°
